Portada
METAR-TAF:

METAR-TAF

Aeroports :

Berlin, Nova Hampshire, Estats Units d'Amèrica

latitud: 44-34-34N, longitud: 071-10-43W, altitud: 353 m

Observació

L'informe es va fer fa 54 minuts, a les 23:52 UTC
Vent 4 kt del Sud/Sud-Est
Temperatura 8°C
Humitat 53%
Pressió 1008 hPa
Visibilitat: 16.1 km
Cel ennuvolat a una alçada de 7500 ft
Cel cobert a una alçada de 9000 ft

METAR: KBML 152352Z AUTO 15004KT 10SM BKN075 OVC090 08/M01 A2977 RMK AO2 SLP090 T00831006 10139 20083 53006

Hora: 20:46 (00:46 UTC)


TAF: manca

Observacions i pronòstics meteorològics de més de 4000 aeroports (METAR i TAF).

Les estacions disponibles són els punts grocs i vermells al mapa.

Posi el ratolí al punt desitjat per veure el nom de l'estació.

Feu clic per veure les observacions i els pronòstics meteorològics.

Per canviar el mapa: feu clic els botons verds amb una creu de color negre per apropar; al botó verd amb un guió per allunyar la imatge; o en les fletxes verdes per a mapes adjacents.


METAR-TAF: